Regional Weather Roundup
Issued by NWS

Home | Current Version | Previous Version | Text Only | Print | Product List | Glossary Off
Versions: 1 2 3 4 5 6 7 8 9 10 11 12 13 14 15 16 17 18 19 20 21 22 23 24 25 26 27 28 29 30 31 32 33 34 35 36 37 38 39 40 41 42 43 44 45 46 47 48 49 50

000
ASUS43 KMKX 190211
RWRWI

WISCONSIN REGIONAL WEATHER ROUNDUP
NATIONAL WEATHER SERVICE MILWAUKEE/SULLIVAN WI
900 PM CDT FRI AUG 18 2017

NOTE: "FAIR" INDICATES FEW OR NO CLOUDS BELOW 12,000 FEET WITH NO
SIGNIFICANT WEATHER AND/OR OBSTRUCTIONS TO VISIBILITY.

WIZ001-002-006>008-014>016-023>028-190300-
NORTHWEST WISCONSIN

CITY           SKY/WX    TMP DP  RH WIND       PRES   REMARKS
SUPERIOR ARPT    N/A     64  60  88 SW8       29.85S
ASHLAND        PTCLDY    63  61  93 SW6       29.86R
HAYWARD        PTCLDY    62  59  90 CALM      29.89R
SIREN          PTCLDY    64  63  94 CALM      29.90R
CUMBERLAND     PTCLDY    61  59  94 W3        29.91R
RICE LAKE      PTCLDY    64  62  92 CALM      29.91R
CHETEK         PTCLDY    65  64  96 CALM      29.90R
LADYSMITH      PTCLDY    64  61  89 SW5       29.91R
EAU CLAIRE     CLOUDY    65  62  90 CALM      29.89S
MENOMONIE      CLOUDY    64  62  94 CALM      29.90R
NEW RICHMOND   MOCLDY    65  63  93 W5        29.92R
OSCEOLA        CLEAR     64  64 100 CALM      29.94R
$$

WIZ003>005-009-010-017-018-190300-
NORTH CENTRAL WISCONSIN

CITY           SKY/WX    TMP DP  RH WIND       PRES   REMARKS
MANITOWISH WTR PTCLDY    59  59 100 CALM      29.89R
ARBOR VITAE    CLOUDY    59  58  96 CALM      29.89R
WOODRUFF       CLOUDY    59  58  96 CALM      29.89R
RHINELANDER    CLEAR     55  54  96 W3        29.89R
EAGLE RIVER    CLEAR     55  55 100 CALM      29.88R FOG
LAND O LAKES   CLEAR     56  55  99 CALM      29.90R FOG
PHILLIPS       CLEAR     60  60 100 CALM      29.89R
TOMAHAWK         N/A     57  56  95 CALM      29.90R FOG
MEDFORD        PTCLDY    62  58  87 W3        29.90R
MERRILL        CLOUDY    63  61  94 W5        29.89R
$$

WIZ029-030-035-036-043>047-190300-
CENTRAL WISCONSIN

CITY           SKY/WX    TMP DP  RH WIND       PRES   REMARKS
WAUSAU         CLOUDY    65  59  81 NW3       29.87R
MOSINEE        MOCLDY    63  61  94 W6        29.90R
MARSHFIELD     CLOUDY    64  62  93 W6        29.89R FOG
STEVENS POINT  CLOUDY    64  61  92 CALM      29.89R
WAUPACA        CLOUDY    68  61  80 W5        29.88R
WAUTOMA        CLOUDY    66  62  87 W3        29.89R
WISC RAPIDS    CLOUDY    65  64  97 W3        29.90S
CAMP DOUGLAS   CLOUDY    64  62  94 W5        29.89S
$$

WIZ011>013-019>022-031-037>040-048>050-190300-
NORTHEAST WISCONSIN

CITY           SKY/WX    TMP DP  RH WIND       PRES   REMARKS
ANTIGO         PTCLDY    62  60  94 W6        29.89R
SHAWANO        CLOUDY    67  61  80 W6        29.86R
OCONTO         CLEAR     59  57  92 CALM      29.84S
STURGEON BAY   CLEAR     64  56  75 N7        29.85R
GREEN BAY      PTCLDY    65  62  90 W7        29.85R
MANITOWOC      MOCLDY    67  59  75 W7        29.85R
APPLETON       MOCLDY    66  57  72 W7        29.85S
CLINTONVILLE   CLOUDY    64  57  77 W5        29.86S
OSHKOSH        CLOUDY    67  60  78 W6        29.86R
$$

WIZ032>034-041-042-053>061-190300-
SOUTHWEST WISCONSIN

CITY           SKY/WX    TMP DP  RH WIND       PRES   REMARKS
LA CROSSE      CLEAR     66  62  87 CALM      29.89S
SPARTA         PTCLDY    62  61  96 CALM      29.91R
VIROQUA        CLEAR     63  63 100 W3        29.92S
BOSCOBEL       CLEAR     64  61  90 CALM      29.91R
PRAIRIE DU CHI CLEAR     63  60  90 CALM      29.90S
PLATTEVILLE    CLOUDY    65  62  90 CALM      29.92R
$$

WIZ056-057-062-063-064-067-068-190300-
SOUTH CENTRAL WISCONSIN

CITY           SKY/WX    TMP DP  RH WIND       PRES   REMARKS
REEDSBURG      CLOUDY    66  63  89 NW6       29.89S
BARABOO/DELLS  CLOUDY    66  59  79 W5        29.90S
LONE ROCK      CLOUDY    67  63  87 W6        29.90R
MINERAL POINT  CLEAR     64  63  94 NW3       29.91F
MADISON        CLOUDY    67  61  81 NW3       29.88S
MIDDLETON      CLOUDY    67  62  83 W5        29.90R
WATERTOWN      CLOUDY    67  61  82 CALM      29.88R
MONROE         CLEAR     64  59  82 NW7       29.90S
JANESVILLE     PTCLDY    66  63  88 NW5       29.88R
$$

WIZ051-052-058>065-066-070>072-190300-
SOUTHEAST WISCONSIN

CITY           SKY/WX    TMP DP  RH WIND       PRES   REMARKS
MILWAUKEE      MOCLDY    74  60  61 NW10      29.86R
WAUKESHA       PTCLDY    64  57  77 W8        29.89R
MILWAUKEE/TIMM PTCLDY    70  57  64 W5        29.87R
RACINE         CLOUDY    72  62  71 W7        29.88R
KENOSHA        CLOUDY    71  60  68 W8        29.88R
FOND DU LAC    CLOUDY    67  59  75 CALM      29.87R
SHEBOYGAN      MOCLDY    66  60  81 VRB3      29.86R
WEST BEND      CLOUDY    68  61  77 CALM      29.87R
JUNEAU         CLOUDY    66  59  77 W3        29.89R
$$

LSZ147-162-190300-
LAKE SUPERIOR

STATION/POSITION TIME  TEMP    WIND        PRES    WAVE
                       AIR SEA DIR/SP/G            HT/PER
                 (UTC) (F)     (DEG/KT/KT) (MB)    (FT/S)
W MID LAKE BUOY  0150   62 60  230/  8/  8 1009.4S   1/ 3
DEVILS ISLAND    0200   65     220/ 11/ 12 1010.0S
SAXON HARBOR     0140   64     190/  3/  4 1010.5R
$$

LMZ867-665-643>646-190300-
LAKE MICHIGAN

STATION/POSITION TIME  TEMP    WIND        PRES    WAVE
                       AIR SEA DIR/SP/G            HT/PER
                 (UTC) (F)     (DEG/KT/KT) (MB)    (FT/S)
S GREEN BAY BUOY 0200   68 70  360/ 12/ 14 1010.7
N MID LAKE BUOY  0150   65 67  310/ 12/ 14 1010.2R   2/ 4
NORTHPORT PIER   0140   67     300/  7/ 10 1010.2R
KEWAUNEE LAKESHO 0148   67      10/  5/ 10 1010.0R
SHEBOYGAN LAKESH 0200   69     280/  7/  9 1010.5R
PORT WASHINGTON  0140   73     320/  5/  9 1011.9R
ATWATER BUOY     0109   73 71  270/ 12/ 14 1010.9R
MILWAUKEE LAKESH 0150   73     300/  8/  9   N/A
S MID LAKE BUOY  0150   71 71  140/  6/  6 1011.0R   1/ 5
KENOSHA   LAKESH 0200   73     290/  8/ 10 1011.2
$$

TC  - TEMPERATURE IN CELSIUS
VSB - VISIBILITY IN STATUTE MILES
WCI - WIND CHILL INDEX
HX  - HEAT INDEX





USA.gov is the U.S. government's official web portal to all federal, state and local government web resources and services.